This is the latest recevied weather packets stored in our database for station/object N3WMC. If no packets are shown the sender has not sent any weather packets the latest 10 day(s).
| Time | Temp. | Humidity | Pressure | Rain* | Wind** | Luminosity | Snow |
|---|---|---|---|---|---|---|---|
| 1787704069 | 19.44° C | 87% | 1019.4 hPa | 0 mm | - | 0 W/m² | - |
| 1787703768 | 19.44° C | 86% | 1019.2 hPa | 0 mm | - | 0 W/m² | - |
| 1787703465 | 20° C | 86% | 1019.3 hPa | 0 mm | - | 0 W/m² | - |
| 1787703159 | 20° C | 86% | 1019.1 hPa | 0 mm | - | 1 W/m² | - |
| 1787702855 | 20° C | 86% | 1019 hPa | 0 mm | - | 1 W/m² | - |
| 1787702551 | 20.56° C | 84% | 1019 hPa | 0 mm | - | 2 W/m² | - |
| 1787702246 | 20.56° C | 84% | 1018.9 hPa | 0 mm | - | 4 W/m² | - |
| 1787701940 | 20.56° C | 83% | 1019 hPa | 0 mm | - | 6 W/m² | - |
| 1787701637 | 21.11° C | 81% | 1019 hPa | 0 mm | - | 9 W/m² | - |
| 1787701333 | 21.67° C | 80% | 1018.9 hPa | 0 mm | - | 12 W/m² | - |
| 1787701028 | 21.67° C | 79% | 1019.2 hPa | 0 mm | - | 16 W/m² | - |
| 1787700722 | 22.22° C | 78% | 1019.3 hPa | 0 mm | - | 19 W/m² | - |
| 1787700419 | 22.78° C | 76% | 1019 hPa | 0 mm | - | 21 W/m² | - |
| 1787700115 | 22.78° C | 75% | 1019 hPa | 0 mm | - | 23 W/m² | - |
| 1787699810 | 22.78° C | 73% | 1019.2 hPa | 0 mm | - | 26 W/m² | - |
| 1787699505 | 23.33° C | 72% | 1019.3 hPa | 0 mm | - | 26 W/m² | - |
| 1787699201 | 23.89° C | 69% | 1019.1 hPa | 0 mm | - | 29 W/m² | - |
| 1787698897 | 24.44° C | 65% | 1019.2 hPa | 0 mm | - | 31 W/m² | - |
| 1787698592 | 25° C | 61% | 1019 hPa | 0 mm | - | 37 W/m² | - |
| 1787698289 | 25° C | 60% | 1019.3 hPa | 0 mm | - | 39 W/m² | - |
| 1787697984 | 25° C | 60% | 1019.4 hPa | 0 mm | - | 44 W/m² | - |
| 1787697683 | 25° C | 61% | 1019.2 hPa | 0 mm | - | 45 W/m² | - |
| 1787697380 | 25° C | 59% | 1019.2 hPa | 0 mm | - | 50 W/m² | - |
| 1787697075 | 25.56° C | 59% | 1019.3 hPa | 0 mm | - | 57 W/m² | - |
| 1787696774 | 25.56° C | 58% | 1019.2 hPa | 0 mm | - | 81 W/m² | - |
* Rain latest hour (hover to see other rain measurements)
** Current wind speed in m/s (hover to see current wind gust speed)